Torna al catalogo

STARLINK-32746

AttivoComunicazioniVLEO
NORAD 62745·PAYLOAD·🇺🇸 United States

Lanciato Jan 21, 2025 da Cape Canaveral Space Force Station

Loading…

Prossimi Passaggi (prossime 24 ore)

TLE

AggiornatoSource: CelesTrak SupGP

Epoca: Sep 15, 2026, 03:42 UTC

1 62745C 25014L   26258.15465278  .00033291  00000+0  12059-2 0  2581
2 62745  43.0022 163.9643 0001494 276.5788 260.5174 15.27559372    12

Traccia STARLINK-32746 in tempo reale con AllMySat

Download on the App Store